Hourly Weather Bolshie Noviki

Today, 23 June, Wednesday

Time Temperature Precipitation Wind Pressure Humidity
00:00 +22°C° 0 mm 3 mps 745 mmHg 82%
01:00 +21°C° 0 mm 3 mps 745 mmHg 84%
02:00 +21°C° 0 mm 3 mps 745 mmHg 84%
03:00 +20°C° 0 mm 3 mps 745 mmHg 86%
04:00 +20°C° 0 mm 2 mps 745 mmHg 87%
05:00 +19°C° 0 mm 2 mps 745 mmHg 88%
06:00 +21°C° 0 mm 3 mps 745 mmHg 83%
07:00 +24°C° 0 mm 3 mps 745 mmHg 77%
08:00 +26°C° 0 mm 3 mps 746 mmHg 72%
09:00 +28°C° 0 mm 3 mps 746 mmHg 67%
10:00 +29°C° 0 mm 4 mps 746 mmHg 62%
11:00 +30°C° 0 mm 4 mps 747 mmHg 57%
12:00 +31°C° 0 mm 3 mps 747 mmHg 56%
13:00 +31°C° 0 mm 3 mps 747 mmHg 55%
14:00 +33°C° 0 mm 3 mps 747 mmHg 55%
15:00 +33°C° 0 mm 3 mps 747 mmHg 56%
16:00 +32°C° 0 mm 2 mps 747 mmHg 58%
17:00 +32°C° 0 mm 2 mps 747 mmHg 60%
18:00 +30°C° 0 mm 2 mps 746 mmHg 65%
19:00 +29°C° 0 mm 2 mps 746 mmHg 71%
20:00 +27°C° 0 mm 2 mps 746 mmHg 76%
21:00 +26°C° 0.3 mm 2 mps 746 mmHg 78%
22:00 +25°C° 0.3 mm 1 mps 747 mmHg 79%
23:00 +24°C° 0.3 mm 1 mps 747 mmHg 81%

Tomorrow, 24 June, Thursday

Time Temperature Precipitation Wind Pressure Humidity
00:00 +23°C° 0.3 mm 1 mps 747 mmHg 82%
01:00 +23°C° 0.3 mm 1 mps 747 mmHg 84%
02:00 +23°C° 0.3 mm 2 mps 747 mmHg 85%
03:00 +23°C° 0 mm 1 mps 747 mmHg 86%
04:00 +23°C° 0 mm 1 mps 747 mmHg 88%
05:00 +23°C° 0 mm 1 mps 747 mmHg 89%
06:00 +24°C° 0 mm 2 mps 747 mmHg 86%
07:00 +26°C° 0 mm 2 mps 747 mmHg 83%
08:00 +27°C° 0 mm 2 mps 747 mmHg 79%
09:00 +29°C° 0 mm 3 mps 747 mmHg 71%
10:00 +30°C° 0 mm 3 mps 747 mmHg 63%
11:00 +32°C° 0 mm 4 mps 747 mmHg 55%
12:00 +33°C° 0 mm 4 mps 747 mmHg 53%
13:00 +33°C° 0 mm 4 mps 746 mmHg 51%
14:00 +34°C° 0 mm 4 mps 746 mmHg 50%
15:00 +33°C° 0 mm 4 mps 746 mmHg 52%
16:00 +33°C° 0 mm 4 mps 745 mmHg 54%
17:00 +33°C° 0 mm 4 mps 745 mmHg 56%
18:00 +30°C° 0 mm 3 mps 745 mmHg 62%
19:00 +29°C° 0 mm 2 mps 745 mmHg 68%
20:00 +27°C° 0 mm 2 mps 745 mmHg 75%
21:00 +26°C° 0.2 mm 2 mps 745 mmHg 77%
22:00 +24°C° 0.2 mm 3 mps 745 mmHg 79%
23:00 +22°C° 0.2 mm 3 mps 745 mmHg 81%

Day after tomorrow, 25 June, Friday

Time Temperature Precipitation Wind Pressure Humidity
00:00 +21°C° 0.3 mm 2 mps 744 mmHg 83%
01:00 +20°C° 0.3 mm 2 mps 744 mmHg 85%
02:00 +21°C° 0.3 mm 1 mps 744 mmHg 87%
03:00 +21°C° 0.2 mm 1 mps 744 mmHg 88%
04:00 +20°C° 0.2 mm 2 mps 744 mmHg 89%
05:00 +20°C° 0.2 mm 2 mps 743 mmHg 90%
06:00 +23°C° 0.2 mm 2 mps 743 mmHg 88%
07:00 +24°C° 0.2 mm 3 mps 744 mmHg 85%
08:00 +26°C° 0.2 mm 3 mps 744 mmHg 83%
09:00 +27°C° 0.5 mm 3 mps 744 mmHg 79%
10:00 +28°C° 0.5 mm 3 mps 744 mmHg 75%
11:00 +29°C° 0.5 mm 3 mps 744 mmHg 71%
12:00 +29°C° 0.6 mm 3 mps 744 mmHg 72%
13:00 +29°C° 0.6 mm 4 mps 744 mmHg 73%
14:00 +29°C° 0.6 mm 4 mps 744 mmHg 73%
15:00 +28°C° 0.8 mm 3 mps 743 mmHg 76%
16:00 +27°C° 0.8 mm 2 mps 743 mmHg 78%
17:00 +27°C° 0.8 mm 1 mps 742 mmHg 80%
18:00 +25°C° 0.8 mm 3 mps 742 mmHg 83%
19:00 +23°C° 0.8 mm 4 mps 742 mmHg 86%
20:00 +22°C° 0.8 mm 5 mps 742 mmHg 89%
21:00 +21°C° 0.4 mm 4 mps 742 mmHg 90%
22:00 +20°C° 0.4 mm 3 mps 742 mmHg 90%
23:00 +19°C° 0.4 mm 2 mps 742 mmHg 91%

26 June, Saturday

Time Temperature Precipitation Wind Pressure Humidity
00:00 +19°C° 0.1 mm 2 mps 742 mmHg 92%
01:00 +18°C° 0.1 mm 2 mps 742 mmHg 93%
02:00 +18°C° 0.1 mm 2 mps 742 mmHg 95%
03:00 +18°C° 0.2 mm 2 mps 742 mmHg 95%
04:00 +19°C° 0.2 mm 2 mps 742 mmHg 96%
05:00 +19°C° 0.2 mm 2 mps 742 mmHg 96%
06:00 +19°C° 0.1 mm 2 mps 742 mmHg 95%
07:00 +20°C° 0.1 mm 2 mps 743 mmHg 94%
08:00 +20°C° 0.1 mm 3 mps 743 mmHg 93%
09:00 +21°C° 0 mm 3 mps 743 mmHg 90%
10:00 +21°C° 0 mm 3 mps 743 mmHg 86%
11:00 +22°C° 0 mm 3 mps 744 mmHg 83%
12:00 +24°C° 0 mm 3 mps 744 mmHg 75%
13:00 +26°C° 0 mm 4 mps 744 mmHg 68%
14:00 +27°C° 0 mm 4 mps 744 mmHg 60%
15:00 +26°C° 0 mm 4 mps 744 mmHg 63%
16:00 +25°C° 0 mm 4 mps 744 mmHg 67%
17:00 +25°C° 0 mm 4 mps 744 mmHg 70%
18:00 +22°C° 0 mm 3 mps 744 mmHg 75%
19:00 +21°C° 0 mm 2 mps 744 mmHg 81%
20:00 +20°C° 0 mm 2 mps 744 mmHg 86%
21:00 +19°C° 0 mm 2 mps 744 mmHg 89%
22:00 +18°C° 0 mm 2 mps 744 mmHg 92%
23:00 +18°C° 0 mm 2 mps 744 mmHg 94%

27 June, Sunday

Time Temperature Precipitation Wind Pressure Humidity
00:00 +17°C° 0 mm 2 mps 744 mmHg 95%
01:00 +17°C° 0 mm 2 mps 744 mmHg 96%
02:00 +17°C° 0 mm 2 mps 744 mmHg 97%
03:00 +16°C° 0 mm 2 mps 744 mmHg 96%
04:00 +16°C° 0 mm 2 mps 745 mmHg 96%
05:00 +16°C° 0 mm 2 mps 745 mmHg 95%
06:00 +17°C° 0 mm 2 mps 745 mmHg 88%
07:00 +18°C° 0 mm 3 mps 745 mmHg 81%
08:00 +19°C° 0 mm 3 mps 745 mmHg 74%
09:00 +20°C° 0 mm 4 mps 745 mmHg 70%
10:00 +22°C° 0 mm 4 mps 745 mmHg 66%
11:00 +23°C° 0 mm 4 mps 745 mmHg 62%
12:00 +23°C° 0 mm 4 mps 745 mmHg 62%
13:00 +23°C° 0 mm 4 mps 745 mmHg 61%
14:00 +23°C° 0 mm 4 mps 745 mmHg 61%
15:00 +23°C° 0 mm 4 mps 745 mmHg 64%
16:00 +24°C° 0 mm 3 mps 745 mmHg 66%
17:00 +22°C° 0 mm 3 mps 746 mmHg 69%
18:00 +21°C° 0 mm 2 mps 745 mmHg 74%
19:00 +21°C° 0 mm 2 mps 745 mmHg 79%
20:00 +20°C° 0 mm 2 mps 745 mmHg 84%
21:00 +19°C° 0 mm 2 mps 745 mmHg 87%
22:00 +17°C° 0 mm 2 mps 745 mmHg 90%
23:00 +16°C° 0 mm 2 mps 746 mmHg 93%

28 June, Monday

Time Temperature Precipitation Wind Pressure Humidity
00:00 +16°C° 0 mm 2 mps 746 mmHg 94%
01:00 +16°C° 0 mm 2 mps 746 mmHg 94%
02:00 +15°C° 0 mm 2 mps 746 mmHg 95%
03:00 +15°C° 0 mm 2 mps 746 mmHg 94%
04:00 +15°C° 0 mm 2 mps 746 mmHg 93%
05:00 +15°C° 0 mm 2 mps 746 mmHg 92%
06:00 +17°C° 0 mm 2 mps 746 mmHg 85%
07:00 +18°C° 0 mm 2 mps 746 mmHg 78%
08:00 +19°C° 0 mm 2 mps 746 mmHg 71%
09:00 +21°C° 0 mm 3 mps 746 mmHg 67%
10:00 +22°C° 0 mm 3 mps 746 mmHg 62%
11:00 +24°C° 0 mm 3 mps 746 mmHg 58%
12:00 +25°C° 0 mm 4 mps 746 mmHg 55%
13:00 +26°C° 0 mm 4 mps 746 mmHg 53%
14:00 +26°C° 0 mm 4 mps 746 mmHg 51%
15:00 +26°C° 0 mm 3 mps 746 mmHg 56%
16:00 +25°C° 0 mm 3 mps 745 mmHg 61%
17:00 +24°C° 0 mm 2 mps 745 mmHg 65%
18:00 +23°C° 0 mm 2 mps 745 mmHg 69%
19:00 +21°C° 0 mm 2 mps 745 mmHg 73%
20:00 +20°C° 0 mm 2 mps 745 mmHg 77%
21:00 +19°C° 0 mm 2 mps 745 mmHg 80%
22:00 +18°C° 0 mm 2 mps 745 mmHg 84%
23:00 +17°C° 0 mm 2 mps 745 mmHg 88%
Show more